WMT1334 LIMC-EGPF

Flight info

Callsign WMT1334
Flight time N/A
Altitude 38000
Route AOSTA DCT ORSUD DCT MOLUS DCT IBODI DCT GOTED DCT TRO DCT CLM DCT KOPOR DCT VESAN DCT RATUK DCT SOVAT L613 LEHOC DCT ASLIB
Aircraft A321/M-SDE1E2E3FGIJ1J4RWXY/LB1

Departure

Time 2026-05-07 08:21
Airport Milan Malpensa International Airport (LIMC)

Arrival

Time N/A
Airport Glasgow Airport (EGPF)
Time Latitude Longitude Altitude Speed Heading
2026-05-07 07:47 45.62702 8.71567 741 ft 0 kts 349°
2026-05-07 08:06 45.62701 8.71568 741 ft 2 kts 349°
2026-05-07 08:06 45.62675 8.71573 739 ft 4 kts 355°
2026-05-07 08:06 45.62649 8.71574 740 ft 4 kts
2026-05-07 08:07 45.62623 8.71567 740 ft 4 kts 26°
2026-05-07 08:07 45.62613 8.71560 739 ft 4 kts 47°
2026-05-07 08:07 45.62622 8.71595 740 ft 4 kts 78°
2026-05-07 08:07 45.62626 8.71633 741 ft 4 kts 83°
2026-05-07 08:08 45.62629 8.71671 741 ft 4 kts 82°
2026-05-07 08:08 45.62633 8.71707 741 ft 2 kts 79°
2026-05-07 08:08 45.62634 8.71708 741 ft 0 kts 79°
2026-05-07 08:11 45.62634 8.71711 741 ft 2 kts 79°
2026-05-07 08:11 45.62638 8.71741 741 ft 4 kts 79°
2026-05-07 08:11 45.62647 8.71809 741 ft 10 kts 79°
2026-05-07 08:12 45.62661 8.71912 741 ft 12 kts 79°
2026-05-07 08:12 45.62654 8.72021 741 ft 12 kts 143°
2026-05-07 08:12 45.62557 8.72056 741 ft 16 kts 169°
2026-05-07 08:12 45.62445 8.72087 740 ft 17 kts 169°
2026-05-07 08:13 45.62323 8.72121 741 ft 19 kts 169°
2026-05-07 08:13 45.62192 8.72157 741 ft 20 kts 169°
2026-05-07 08:13 45.62050 8.72196 741 ft 21 kts 169°
2026-05-07 08:13 45.61900 8.72238 742 ft 23 kts 169°
2026-05-07 08:14 45.61741 8.72282 742 ft 24 kts 169°
2026-05-07 08:14 45.61573 8.72328 742 ft 25 kts 169°
2026-05-07 08:14 45.61435 8.72366 742 ft 14 kts 174°
2026-05-07 08:14 45.61383 8.72265 742 ft 15 kts 259°
2026-05-07 08:15 45.61319 8.72198 741 ft 15 kts 172°
2026-05-07 08:15 45.61208 8.72229 742 ft 17 kts 169°
2026-05-07 08:15 45.61086 8.72262 742 ft 19 kts 169°
2026-05-07 08:15 45.60948 8.72300 742 ft 21 kts 169°
2026-05-07 08:16 45.60793 8.72343 742 ft 24 kts 169°
2026-05-07 08:16 45.60649 8.72436 742 ft 23 kts 118°
2026-05-07 08:16 45.60626 8.72657 742 ft 22 kts 96°
2026-05-07 08:16 45.60609 8.72879 741 ft 23 kts 96°
2026-05-07 08:17 45.60592 8.73111 742 ft 22 kts 96°
2026-05-07 08:17 45.60660 8.73285 742 ft 22 kts 23°
2026-05-07 08:17 45.60805 8.73369 742 ft 23 kts 22°
2026-05-07 08:17 45.60958 8.73391 742 ft 20 kts 349°
2026-05-07 08:18 45.61102 8.73351 742 ft 22 kts 349°
2026-05-07 08:18 45.61252 8.73309 742 ft 23 kts 349°
2026-05-07 08:18 45.61411 8.73265 742 ft 24 kts 349°
2026-05-07 08:18 45.61569 8.73221 742 ft 21 kts 349°
2026-05-07 08:19 45.61617 8.73278 742 ft 8 kts 80°
2026-05-07 08:19 45.61632 8.73397 741 ft 14 kts 84°
2026-05-07 08:19 45.61592 8.73526 741 ft 15 kts 113°
2026-05-07 08:19 45.61595 8.73685 740 ft 18 kts 79°
2026-05-07 08:20 45.61632 8.73732 739 ft 0 kts 351°
2026-05-07 08:20 45.61635 8.73732 739 ft 1 kts 351°
2026-05-07 08:20 45.61874 8.73666 739 ft 76 kts 349°
2026-05-07 08:20 45.62634 8.73457 743 ft 143 kts 349°
2026-05-07 08:21 45.63749 8.73150 1065 ft 167 kts 349°
2026-05-07 08:21 45.64890 8.72859 1801 ft 170 kts 351°
2026-05-07 08:21 45.66124 8.72613 2200 ft 192 kts 359°
2026-05-07 08:21 45.67543 8.72613 2510 ft 214 kts
2026-05-07 08:22 45.69114 8.72615 2917 ft 234 kts
2026-05-07 08:22 45.70734 8.72609 3891 ft 232 kts 359°
2026-05-07 08:22 45.72296 8.72101 4764 ft 235 kts 328°
2026-05-07 08:22 45.73337 8.70327 5570 ft 239 kts 289°
2026-05-07 08:23 45.73450 8.67962 6392 ft 242 kts 261°
2026-05-07 08:23 45.73039 8.65613 7218 ft 244 kts 252°
2026-05-07 08:23 45.72482 8.63306 8057 ft 246 kts 251°
2026-05-07 08:23 45.71901 8.60987 8876 ft 249 kts 247°
2026-05-07 08:24 45.71021 8.58848 9503 ft 263 kts 234°
2026-05-07 08:24 45.69927 8.56621 9920 ft 282 kts 237°
2026-05-07 08:24 45.68827 8.54225 10392 ft 298 kts 238°
2026-05-07 08:24 45.67673 8.51622 10639 ft 321 kts 238°
2026-05-07 08:25 45.66463 8.48866 11179 ft 331 kts 238°
2026-05-07 08:25 45.65225 8.46060 11917 ft 335 kts 238°
2026-05-07 08:25 45.63972 8.43236 12715 ft 338 kts 238°
2026-05-07 08:25 45.62676 8.40427 13485 ft 341 kts 233°
2026-05-07 08:26 45.59818 8.35028 14867 ft 345 kts 244°
2026-05-07 08:26 45.58973 8.31822 15549 ft 347 kts 257°
2026-05-07 08:26 45.58709 8.28399 16245 ft 349 kts 271°
2026-05-07 08:27 45.59037 8.24958 16940 ft 352 kts 285°
2026-05-07 08:27 45.59758 8.21604 17645 ft 355 kts 287°
2026-05-07 08:27 45.60530 8.18245 18352 ft 357 kts 288°
2026-05-07 08:27 45.61326 8.14873 18962 ft 360 kts 288°
2026-05-07 08:28 45.62134 8.11474 19580 ft 363 kts 288°
2026-05-07 08:28 45.62942 8.08047 20202 ft 365 kts 288°
2026-05-07 08:28 45.63742 8.04634 20797 ft 368 kts 288°
2026-05-07 08:28 45.64552 8.01148 21418 ft 371 kts 288°
2026-05-07 08:29 45.65364 7.97627 22037 ft 374 kts 288°
2026-05-07 08:29 45.66178 7.94076 22644 ft 378 kts 288°
2026-05-07 08:29 45.66997 7.90490 23238 ft 381 kts 288°
2026-05-07 08:29 45.67821 7.86877 23784 ft 384 kts 288°
2026-05-07 08:30 45.68653 7.83237 24284 ft 387 kts 288°
2026-05-07 08:30 45.69490 7.79569 24800 ft 389 kts 288°
2026-05-07 08:30 45.70331 7.75872 25278 ft 392 kts 288°
2026-05-07 08:30 45.71178 7.72151 25777 ft 395 kts 288°
2026-05-07 08:31 45.72034 7.68392 26127 ft 400 kts 288°
2026-05-07 08:31 45.72885 7.64636 26538 ft 404 kts 288°
2026-05-07 08:31 45.73754 7.60798 26981 ft 407 kts 288°
2026-05-07 08:31 45.74626 7.56937 27426 ft 409 kts 288°
2026-05-07 08:32 45.75500 7.53047 27869 ft 412 kts 288°
2026-05-07 08:32 45.76378 7.49128 28324 ft 414 kts 288°
2026-05-07 08:32 45.77261 7.45187 28764 ft 417 kts 288°
2026-05-07 08:32 45.78169 7.41232 29177 ft 419 kts 290°
2026-05-07 08:33 45.79426 7.37455 29575 ft 422 kts 300°
2026-05-07 08:33 45.81106 7.34055 29963 ft 426 kts 309°
2026-05-07 08:33 45.83213 7.31054 30313 ft 429 kts 319°
2026-05-07 08:33 45.85628 7.28511 30612 ft 432 kts 323°
2026-05-07 08:34 45.88095 7.26013 30904 ft 435 kts 323°
2026-05-07 08:34 45.90570 7.23496 31228 ft 437 kts 322°
2026-05-07 08:34 45.93055 7.20958 31578 ft 439 kts 322°
2026-05-07 08:34 45.95541 7.18416 32047 ft 438 kts 322°
2026-05-07 08:35 45.98023 7.15879 32517 ft 437 kts 322°
2026-05-07 08:35 45.99664 7.14200 32806 ft 437 kts 322°
2026-05-07 08:35 46.02970 7.10813 33398 ft 435 kts 322°
2026-05-07 08:35 46.05401 7.08321 33826 ft 435 kts 321°
2026-05-07 08:36 46.07861 7.05793 34225 ft 434 kts 321°
2026-05-07 08:36 46.10316 7.03271 34557 ft 434 kts 321°
2026-05-07 08:36 46.12775 7.00743 34856 ft 434 kts 321°
2026-05-07 08:36 46.15236 6.98211 35153 ft 435 kts 321°
2026-05-07 08:37 46.17697 6.95671 35425 ft 436 kts 321°
2026-05-07 08:37 46.19333 6.93978 35570 ft 437 kts 321°
2026-05-07 08:37 46.21805 6.91417 35842 ft 438 kts 321°
2026-05-07 08:37 46.25092 6.88015 36223 ft 439 kts 321°
2026-05-07 08:38 46.27577 6.85441 36501 ft 440 kts 321°
2026-05-07 08:38 46.30063 6.82864 36783 ft 440 kts 321°
2026-05-07 08:38 46.32552 6.80279 37063 ft 441 kts 321°
2026-05-07 08:38 46.35041 6.77690 37362 ft 441 kts 321°
2026-05-07 08:39 46.36689 6.75976 37541 ft 441 kts 321°
2026-05-07 08:39 46.39182 6.73381 37762 ft 442 kts 321°
2026-05-07 08:39 46.41679 6.70776 37960 ft 443 kts 321°
2026-05-07 08:39 46.44145 6.68103 38023 ft 442 kts 316°
2026-05-07 08:40 46.48456 6.61816 38019 ft 439 kts 311°
2026-05-07 08:40 46.52658 6.55459 38024 ft 439 kts 311°
2026-05-07 08:41 46.56884 6.49057 38026 ft 439 kts 311°
2026-05-07 08:41 46.61102 6.42639 38026 ft 438 kts 311°
2026-05-07 08:42 46.65999 6.35179 38036 ft 439 kts 311°
2026-05-07 08:42 46.69508 6.29835 38043 ft 439 kts 311°
2026-05-07 08:43 46.73723 6.23386 38044 ft 440 kts 311°
2026-05-07 08:43 46.77933 6.16913 38058 ft 440 kts 311°
2026-05-07 08:44 46.82141 6.10438 38074 ft 440 kts 311°
2026-05-07 08:44 46.86351 6.03943 38073 ft 440 kts 311°
2026-05-07 08:45 46.90529 5.97485 38071 ft 440 kts 311°
2026-05-07 08:45 46.94831 5.91100 38069 ft 442 kts 318°
2026-05-07 08:46 47.00093 5.86369 38069 ft 446 kts 329°
2026-05-07 08:46 47.05595 5.82157 38078 ft 447 kts 329°
2026-05-07 08:47 47.11099 5.77913 38075 ft 447 kts 329°
2026-05-07 08:47 47.16565 5.73689 38074 ft 447 kts 329°
2026-05-07 08:48 47.22065 5.69433 38074 ft 447 kts 329°
2026-05-07 08:48 47.27563 5.65168 38078 ft 447 kts 329°
2026-05-07 08:49 47.33058 5.60900 38076 ft 447 kts 330°
2026-05-07 08:49 47.38518 5.56644 38076 ft 446 kts 329°
2026-05-07 08:50 47.44008 5.52362 38076 ft 446 kts 329°
2026-05-07 08:50 47.49484 5.48033 38078 ft 446 kts 326°
2026-05-07 08:51 47.54177 5.42200 38075 ft 440 kts 308°
2026-05-07 08:51 47.57821 5.35035 38073 ft 439 kts 304°
2026-05-07 08:52 47.61444 5.27747 38069 ft 439 kts 304°
2026-05-07 08:52 47.65064 5.20450 38069 ft 439 kts 304°
2026-05-07 08:53 47.68681 5.13139 38073 ft 440 kts 304°
2026-05-07 08:53 47.72267 5.05861 38079 ft 440 kts 304°
2026-05-07 08:54 47.75877 4.98518 38079 ft 440 kts 304°
2026-05-07 08:54 47.79475 4.91154 38079 ft 440 kts 304°
2026-05-07 08:55 47.83074 4.83795 38077 ft 440 kts 304°
2026-05-07 08:55 47.86653 4.76478 38077 ft 440 kts 304°
2026-05-07 08:56 47.90243 4.69101 38074 ft 440 kts 304°
2026-05-07 08:56 47.93831 4.61710 38081 ft 440 kts 304°
2026-05-07 08:57 47.97412 4.54308 38076 ft 440 kts 304°
2026-05-07 08:57 48.00987 4.46899 38075 ft 440 kts 304°
2026-05-07 08:58 48.04531 4.39527 38072 ft 440 kts 304°
2026-05-07 08:58 48.08093 4.32094 38074 ft 440 kts 304°
2026-05-07 08:59 48.11656 4.24650 38080 ft 440 kts 304°
2026-05-07 08:59 48.15218 4.17209 38088 ft 440 kts 304°
2026-05-07 09:00 48.18742 4.09804 38082 ft 439 kts 304°
2026-05-07 09:00 48.22278 4.02328 38081 ft 439 kts 304°
2026-05-07 09:01 48.25952 3.95004 38080 ft 440 kts 312°
2026-05-07 09:01 48.30201 3.88367 38081 ft 441 kts 312°
2026-05-07 09:02 48.34429 3.81699 38080 ft 441 kts 312°
2026-05-07 09:02 48.38616 3.75050 38090 ft 441 kts 312°
2026-05-07 09:03 48.42835 3.68349 38083 ft 441 kts 312°